W4XWA Weather Reports


time (UTC)temp
C
wind
direction
speed
KPH
gust
KPH
rain 1hr
cm
rain 24hr
cm
rain mn
cm
humidity
%
barometer
mb
20260906113620 23 201 0.0 0.0 0.00 0.13 0.13 99 1012.7
20260906113120 23 216 0.0 0.0 0.00 0.13 0.13 99 1012.8
20260906112620 23 215 0.0 0.0 0.00 0.13 0.13 99 1012.7
20260906112117 23 215 0.0 0.0 0.00 0.13 0.13 99 1012.5
20260906111616 23 214 0.0 0.0 0.00 0.13 0.13 99 1012.6
20260906111111 22 210 0.0 0.0 0.00 0.13 0.13 99 1012.7
20260906110611 22 214 0.0 0.0 0.00 0.13 0.13 99 1012.5
20260906110106 22 220 0.0 0.0 0.00 0.13 0.13 99 1012.6
20260906105600 23 216 0.0 0.0 0.00 0.13 0.13 99 1012.6
20260906105057 23 206 0.0 0.0 0.00 0.13 0.13 99 1012.7
20260906104555 23 211 0.0 0.0 0.00 0.13 0.13 99 1012.7
20260906104050 23 198 0.0 0.0 0.00 0.13 0.13 99 1012.7
20260906103548 23 206 0.0 0.0 0.18 0.13 0.13 99 1013.1
20260906103044 23 213 0.0 0.0 0.18 0.13 0.13 99 1013.1
20260906102543 23 210 0.0 0.0 0.13 0.10 0.10 99 1013.1
20260906102039 23 211 1.6 1.6 0.13 0.10 0.10 99 1013.2
20260906101538 23 215 0.0 0.0 0.00 0.08 0.08 99 1013.2
20260906101033 23 206 1.6 1.6 0.18 0.08 0.08 99 1013.1
20260906100529 23 212 0.0 0.0 0.18 0.08 0.08 99 1013.2
20260906100029 23 212 0.0 0.0 0.13 0.05 0.05 99 1013.0
20260906095524 23 213 0.0 0.0 0.13 0.05 0.05 99 1013.2
20260906095020 24 212 0.0 0.0 0.18 0.03 0.03 97 1013.2
20260906094518 25 212 0.0 0.0 0.18 0.03 0.03 96 1012.7
20260906094014 25 237 0.0 0.0 0.00 0.00 0.00 96 1012.6
20260906093510 25 209 0.0 0.0 0.00 0.00 0.00 96 1012.7
20260906093010 25 218 0.0 0.0 0.00 0.00 0.00 96 1012.5
20260906092505 25 219 0.0 0.0 0.00 0.00 0.00 95 1012.0
20260906092000 25 204 0.0 0.0 0.00 0.00 0.00 94 1012.2
20260906091456 25 209 0.0 0.0 0.00 0.00 0.00 93 1012.3
20260906090953 25 205 0.0 0.0 0.00 0.00 0.00 92 1012.2
20260906090447 25 209 0.0 0.0 0.00 0.00 0.00 92 1012.2
20260906085947 25 216 0.0 0.0 0.00 0.00 0.00 91 1012.2
20260906085446 25 213 0.0 0.0 0.00 0.00 0.00 91 1011.9
20260906084945 25 209 0.0 0.0 0.00 0.00 0.00 91 1011.9
20260906084441 26 214 0.0 0.0 0.00 0.00 0.00 91 1012.1
20260906083939 26 212 0.0 0.0 0.00 0.00 0.00 92 1012.2
20260906083436 26 209 0.0 0.0 0.00 0.00 0.00 93 1012.2
20260906082934 26 209 0.0 0.0 0.00 0.00 0.00 94 1012.3
20260906082430 26 213 0.0 0.0 0.00 0.00 0.00 95 1012.2
20260906081925 25 219 0.0 0.0 0.00 0.00 0.00 96 1012.4
20260906081421 26 213 0.0 0.0 0.00 0.00 0.00 96 1012.4
20260906080917 25 207 0.0 0.0 0.00 0.00 0.00 96 1012.5
20260906080414 25 211 0.0 0.0 0.00 0.00 0.00 96 1012.7
20260906075913 25 210 0.0 0.0 0.00 0.00 0.00 96 1012.6
20260906075408 25 211 0.0 0.0 0.00 0.00 0.00 96 1012.7
20260906074903 25 213 0.0 0.0 0.00 0.00 0.00 96 1012.8
20260906074403 25 211 0.0 0.0 0.00 0.00 0.00 96 1012.6
20260906073901 25 204 0.0 0.0 0.00 0.00 0.00 97 1012.5
20260906073356 25 209 0.0 0.0 0.00 0.00 0.00 97 1012.7
20260906072853 25 216 0.0 0.0 0.00 0.00 0.00 97 1012.5
20260906072348 25 209 0.0 0.0 0.00 0.00 0.00 97 1012.1
20260906071844 25 209 0.0 0.0 0.00 0.00 0.00 97 1012.1
20260906071339 25 209 0.0 0.0 0.00 0.00 0.00 97 1012.3
20260906070836 25 209 0.0 0.0 0.00 0.00 0.00 97 1012.3
20260906070331 25 210 0.0 0.0 0.00 0.00 0.00 97 1012.4
20260906065826 25 209 0.0 0.0 0.00 0.00 0.00 97 1012.5
20260906065321 25 217 0.0 0.0 0.00 0.00 0.00 97 1012.3
20260906064817 25 211 0.0 0.0 0.00 0.00 0.00 97 1012.6
20260906064313 25 204 0.0 0.0 0.00 0.00 0.00 97 1012.5
20260906063813 25 212 0.0 0.0 0.00 0.00 0.00 97 1012.5
20260906063308 25 212 0.0 0.0 0.00 0.00 0.00 97 1012.6
20260906062803 25 212 0.0 0.0 0.00 0.00 0.00 97 1012.4
20260906062305 25 213 0.0 0.0 0.00 0.00 0.00 97 1012.8
20260906061758 25 213 0.0 0.0 0.00 0.00 0.00 97 1013.0
20260906061254 25 213 0.0 0.0 0.00 0.00 0.00 96 1012.9
20260906060749 25 213 0.0 0.0 0.00 0.00 0.00 96 1012.9
20260906060247 25 213 0.0 0.0 0.00 0.00 0.00 96 1013.1
20260906055742 25 215 0.0 0.0 0.00 0.00 0.00 95 1013.2
20260906055237 25 215 0.0 0.0 0.00 0.00 0.00 96 1012.9
20260906054733 25 215 0.0 0.0 0.00 0.00 0.00 96 1012.9
20260906054228 25 215 0.0 0.0 0.00 0.00 0.00 96 1013.0
20260906053724 25 207 0.0 0.0 0.00 0.00 0.00 96 1012.8
20260906053220 25 212 0.0 0.0 0.00 0.00 0.00 96 1013.1
20260906052715 25 214 0.0 0.0 0.00 0.00 0.00 96 1013.0
20260906052211 25 214 0.0 0.0 0.00 0.00 0.00 95 1013.0
20260906051708 25 213 0.0 0.0 0.00 0.00 0.00 95 1013.1
20260906051207 25 214 0.0 0.0 0.00 0.00 0.00 95 1013.0
20260906050703 25 214 0.0 0.0 0.00 0.00 0.00 95 1013.1
20260906050157 25 209 0.0 0.0 0.00 0.00 0.00 95 1013.1
20260906045656 25 209 0.0 0.0 0.00 0.00 0.00 95 1013.1
20260906045151 25 211 0.0 0.0 0.00 0.00 0.00 95 1013.3
20260906044647 25 208 0.0 0.0 0.00 0.00 0.00 95 1013.1
20260906044142 25 214 0.0 0.0 0.00 0.00 0.00 94 1013.3
20260906043638 26 214 0.0 0.0 0.00 0.00 0.00 94 1013.4
20260906043134 26 209 0.0 0.0 0.00 0.00 0.00 94 1013.3
20260906042633 26 202 0.0 0.0 0.00 0.00 0.00 93 1013.2
20260906042127 26 210 0.0 0.0 0.00 0.00 0.00 93 1013.2
20260906041623 26 208 0.0 0.0 0.00 0.00 0.00 93 1013.2
20260906041118 25 201 0.0 0.0 0.00 0.00 0.00 94 1013.1
20260906040614 25 210 0.0 0.0 0.00 0.00 0.00 94 1013.2
20260906040109 25 211 0.0 0.0 0.00 0.00 0.00 93 1013.1
20260906035604 25 211 0.0 0.0 0.00 0.00 0.00 94 1013.1
20260906035100 26 206 0.0 0.0 0.00 0.00 0.00 94 1013.2
20260906034600 26 205 0.0 0.0 0.00 0.00 0.00 93 1013.2
20260906034054 26 205 0.0 0.0 0.00 0.00 0.00 93 1013.1
20260906033550 26 212 0.0 0.0 0.00 0.00 0.00 93 1013.1
20260906033045 26 217 0.0 0.0 0.00 0.00 0.00 92 1013.1
20260906032542 26 218 0.0 0.0 0.00 0.00 0.00 92 1013.1
20260906032036 26 218 0.0 0.0 0.00 0.00 0.00 92 1012.9
20260906031532 26 215 0.0 0.0 0.00 0.00 0.00 92 1013.1
20260906031027 26 213 0.0 0.0 0.00 0.00 0.00 92 1012.9
20260906030526 26 205 0.0 0.0 0.00 0.00 0.00 92 1013.1
20260906030026 26 212 0.0 0.0 0.00 0.00 0.00 92 1012.9
20260906025526 26 213 0.0 0.0 0.00 0.00 0.00 92 1012.9
20260906025024 26 213 0.0 0.0 0.00 0.00 0.00 91 1013.1
20260906024520 26 205 0.0 0.0 0.00 0.00 0.00 91 1013.0
20260906024020 26 207 0.0 0.0 0.00 0.00 0.00 91 1012.9
20260906023516 26 213 0.0 0.0 0.00 0.00 0.00 90 1012.6
20260906023011 26 213 0.0 0.0 0.00 0.00 0.00 90 1012.8
20260906022506 26 217 0.0 0.0 0.00 0.00 0.00 90 1013.0
20260906022001 26 209 0.0 0.0 0.00 0.00 0.00 90 1012.7
20260906021455 26 210 0.0 0.0 0.00 0.00 0.00 90 1012.6
20260906020950 27 210 0.0 0.0 0.00 0.00 0.00 89 1012.8
20260906020445 27 210 0.0 0.0 0.00 0.00 0.00 89 1012.7
20260906015944 27 210 0.0 0.0 0.00 0.00 0.00 88 1012.8
20260906015444 27 210 0.0 0.0 0.00 0.00 0.00 88 1012.7
20260906014943 27 207 0.0 0.0 0.00 0.00 0.00 88 1012.6
20260906014438 27 209 0.0 0.0 0.00 0.00 0.00 87 1012.2
20260906013934 27 214 0.0 0.0 0.00 0.00 0.00 88 1012.3
20260906013429 27 211 0.0 0.0 0.00 0.00 0.00 87 1012.1
20260906012925 27 209 0.0 0.0 0.00 0.00 0.00 87 1012.0
20260906012425 27 214 0.0 0.0 0.00 0.00 0.00 86 1011.7
20260906011924 27 213 0.0 0.0 0.00 0.00 0.00 86 1011.8
20260906011420 27 211 0.0 0.0 0.00 0.00 0.00 86 1011.9
20260906010915 28 204 0.0 0.0 0.00 0.00 0.00 86 1011.7
20260906010411 28 211 0.0 0.0 0.00 0.00 0.00 85 1011.6
20260906005907 28 210 0.0 0.0 0.00 0.00 0.00 85 1011.6
20260906005406 28 209 0.0 0.0 0.00 0.00 0.00 85 1011.4
20260906004904 28 209 0.0 0.0 0.00 0.00 0.00 84 1011.5
20260906004359 28 205 0.0 0.0 0.00 0.00 0.00 84 1011.6
20260906003854 28 209 0.0 0.0 0.00 0.00 0.00 84 1011.6
20260906003349 28 214 0.0 0.0 0.00 0.00 0.00 83 1011.6
20260906002845 29 209 0.0 0.0 0.00 0.00 0.00 83 1011.3
20260906002344 29 194 1.6 1.6 0.00 0.00 0.00 83 1011.5
20260906001840 29 205 0.0 1.6 0.00 0.00 0.00 82 1011.4
20260906001336 29 211 0.0 0.0 0.00 0.00 0.00 82 1011.5
20260906000831 30 211 0.0 0.0 0.00 0.00 0.00 82 1011.3
20260906000326 30 222 0.0 0.0 0.00 0.00 0.00 81 1011.4
20260905235825 30 209 0.0 0.0 0.00 0.00 0.00 81 1011.4
20260905235320 30 182 0.0 0.0 0.00 0.00 0.00 80 1011.5
20260905234815 30 212 0.0 0.0 0.00 0.00 0.00 80 1011.4
20260905234311 30 211 0.0 0.0 0.00 0.00 0.00 80 1011.6
20260905233811 30 199 0.0 0.0 0.00 0.00 0.00 79 1011.7
20260905233306 30 206 0.0 0.0 0.00 0.00 0.00 78 1011.8
20260905232805 31 209 0.0 0.0 0.00 0.00 0.00 77 1011.5
20260905232301 31 92 4.8 4.8 0.00 0.00 0.00 76 1011.5
20260905231757 31 209 0.0 0.0 0.00 0.00 0.00 75 1011.4
20260905231252 31 207 0.0 0.0 0.00 0.00 0.00 74 1011.4
20260905230748 32 210 1.6 1.6 0.00 0.00 0.00 73 1011.3
20260905230246 32 191 1.6 3.2 0.00 0.00 0.00 72 1011.3
20260905225745 32 177 0.0 0.0 0.00 0.00 0.00 71 1011.3
20260905225241 32 210 0.0 0.0 0.00 0.00 0.00 70 1011.4
20260905224739 32 209 0.0 0.0 0.00 0.00 0.00 70 1011.4
20260905224236 33 213 0.0 0.0 0.00 0.00 0.00 69 1011.2
20260905223731 33 214 0.0 0.0 0.00 0.00 0.00 69 1011.1
20260905223228 33 212 0.0 0.0 0.00 0.00 0.00 67 1011.1
20260905222724 33 160 4.8 8.0 0.00 0.00 0.00 66 1011.0
20260905222222 33 216 0.0 0.0 0.00 0.00 0.00 64 1011.1
20260905221719 33 213 0.0 0.0 0.00 0.00 0.00 62 1010.7
20260905221216 33 205 0.0 0.0 0.00 0.00 0.00 61 1011.1
20260905220711 34 211 0.0 0.0 0.00 0.00 0.00 58 1011.0
20260905220207 35 212 0.0 0.0 0.00 0.00 0.00 53 1010.9
20260905215706 35 207 0.0 0.0 0.00 0.00 0.00 49 1011.0
20260905215202 35 204 0.0 0.0 0.00 0.00 0.00 52 1010.8
20260905214658 35 182 3.2 3.2 0.00 0.00 0.00 51 1010.9
20260905214153 35 207 0.0 0.0 0.00 0.00 0.00 50 1010.8
20260905213648 35 215 0.0 0.0 0.00 0.00 0.00 52 1010.9
20260905213144 35 215 0.0 1.6 0.00 0.00 0.00 49 1011.0
20260905212639 36 209 0.0 0.0 0.00 0.00 0.00 50 1011.0
20260905212138 36 209 1.6 1.6 0.00 0.00 0.00 48 1010.9
20260905211633 36 202 0.0 0.0 0.00 0.00 0.00 48 1011.2
20260905211128 36 219 0.0 0.0 0.00 0.00 0.00 48 1011.0
20260905210625 37 209 0.0 0.0 0.00 0.00 0.00 47 1011.1
20260905210119 37 214 0.0 0.0 0.00 0.00 0.00 49 1011.0
20260905205619 36 226 0.0 0.0 0.00 0.00 0.00 47 1011.2
20260905205118 36 215 0.0 0.0 0.00 0.00 0.00 49 1011.4
20260905204618 36 215 0.0 0.0 0.00 0.00 0.00 50 1011.3
20260905204114 36 199 0.0 0.0 0.00 0.00 0.00 49 1011.5
20260905203613 38 198 0.0 0.0 0.00 0.00 0.00 47 1011.4
20260905203109 37 211 1.6 1.6 0.00 0.00 0.00 47 1011.5
20260905202604 37 222 0.0 0.0 0.00 0.00 0.00 49 1011.5
20260905202059 36 212 0.0 0.0 0.00 0.00 0.00 49 1011.7
20260905201555 36 227 0.0 0.0 0.00 0.00 0.00 48 1011.5
20260905201054 36 217 0.0 0.0 0.00 0.00 0.00 50 1011.7
20260905200550 36 209 0.0 0.0 0.00 0.00 0.00 51 1011.7
20260905200044 37 244 0.0 1.6 0.00 0.00 0.00 50 1011.7
20260905195538 36 161 3.2 4.8 0.00 0.00 0.00 50 1011.7
20260905195034 36 230 0.0 0.0 0.00 0.00 0.00 49 1011.7
20260905194533 36 198 0.0 1.6 0.00 0.00 0.00 51 1011.7
20260905194033 36 207 0.0 0.0 0.00 0.00 0.00 52 1011.6
20260905193527 35 207 0.0 0.0 0.00 0.00 0.00 51 1011.7
20260905193023 35 204 0.0 0.0 0.00 0.00 0.00 53 1012.0
20260905192518 35 212 0.0 0.0 0.00 0.00 0.00 53 1012.1
20260905192015 35 211 0.0 0.0 0.00 0.00 0.00 54 1012.2
20260905191513 36 164 0.0 1.6 0.00 0.00 0.00 52 1012.1
20260905191012 36 244 0.0 0.0 0.00 0.00 0.00 50 1012.4
20260905190510 36 209 0.0 1.6 0.00 0.00 0.00 50 1012.5
20260905190010 35 214 0.0 0.0 0.00 0.00 0.00 53 1012.4
20260905185504 35 167 4.8 8.0 0.00 0.00 0.00 51 1012.7
20260905185003 35 199 0.0 0.0 0.00 0.00 0.00 55 1012.6
20260905184459 35 180 0.0 0.0 0.00 0.00 0.00 53 1012.8
20260905183957 35 214 0.0 0.0 0.00 0.00 0.00 54 1012.8
20260905183457 35 242 1.6 3.2 0.00 0.00 0.00 53 1012.7
20260905182951 35 199 0.0 0.0 0.00 0.00 0.00 55 1013.0
20260905182451 35 219 0.0 0.0 0.00 0.00 0.00 58 1013.0
20260905181947 35 210 0.0 0.0 0.00 0.00 0.00 59 1013.1
20260905181447 35 217 0.0 0.0 0.00 0.00 0.00 56 1013.2
20260905180946 35 205 1.6 3.2 0.00 0.00 0.00 56 1013.4
20260905180441 36 181 3.2 4.8 0.00 0.00 0.00 54 1013.5
20260905175936 35 208 0.0 0.0 0.00 0.00 0.00 55 1013.5
20260905175435 36 214 1.6 1.6 0.00 0.00 0.00 56 1013.4
20260905174931 35 218 1.6 1.6 0.00 0.00 0.00 56 1013.7
20260905174426 36 173 3.2 3.2 0.00 0.00 0.00 55 1013.6
20260905173922 36 207 0.0 0.0 0.00 0.00 0.00 54 1013.8
20260905173419 36 229 0.0 1.6 0.00 0.00 0.00 55 1013.8
20260905172919 36 201 3.2 3.2 0.00 0.00 0.00 55 1013.9
20260905172416 35 210 0.0 0.0 0.00 0.00 0.00 55 1014.0
20260905171912 35 208 0.0 0.0 0.00 0.00 0.00 56 1013.8
20260905171409 35 217 0.0 0.0 0.00 0.00 0.00 57 1014.0
20260905170905 35 197 0.0 3.2 0.00 0.00 0.00 56 1014.2
20260905170401 35 12 1.6 1.6 0.00 0.00 0.00 55 1014.2
20260905165900 35 179 4.8 4.8 0.00 0.00 0.00 57 1014.2
20260905165355 34 203 1.6 1.6 0.00 0.00 0.00 62 1014.3
20260905164850 34 141 3.2 3.2 0.00 0.00 0.00 61 1014.5
20260905164345 34 155 3.2 4.8 0.00 0.00 0.00 57 1014.5
20260905163840 35 205 1.6 3.2 0.00 0.00 0.00 59 1014.4
20260905163337 35 209 0.0 0.0 0.00 0.00 0.00 60 1014.5
20260905162833 34 213 0.0 0.0 0.00 0.00 0.00 60 1014.8
20260905162332 35 181 0.0 1.6 0.00 0.00 0.00 59 1014.6
20260905161827 34 202 0.0 0.0 0.00 0.00 0.00 63 1014.9
20260905161326 34 215 0.0 3.2 0.00 0.00 0.00 61 1014.6
20260905160825 34 196 0.0 0.0 0.00 0.00 0.00 62 1014.5
20260905160319 34 215 0.0 0.0 0.00 0.00 0.00 61 1014.9
20260905155814 34 191 0.0 0.0 0.00 0.00 0.00 62 1014.6
20260905155313 34 159 0.0 0.0 0.00 0.00 0.00 62 1014.8
20260905154807 34 201 0.0 0.0 0.00 0.00 0.00 64 1014.6
20260905154303 33 222 0.0 0.0 0.00 0.00 0.00 64 1014.4
20260905153758 33 162 0.0 0.0 0.00 0.00 0.00 64 1014.5
20260905153254 33 215 0.0 1.6 0.00 0.00 0.00 67 1014.6
20260905152749 33 214 0.0 0.0 0.00 0.00 0.00 66 1014.3
20260905152248 33 202 1.6 1.6 0.00 0.00 0.00 67 1014.6
20260905151748 33 196 0.0 0.0 0.00 0.00 0.00 67 1014.8
20260905151244 32 203 0.0 0.0 0.00 0.00 0.00 68 1014.8
20260905150744 32 192 1.6 1.6 0.00 0.00 0.00 68 1014.6
20260905150243 32 198 0.0 0.0 0.00 0.00 0.00 69 1014.5
20260905145741 32 210 0.0 0.0 0.00 0.00 0.00 70 1014.8
20260905145236 32 213 0.0 0.0 0.00 0.00 0.00 72 1014.6
20260905144735 31 238 3.2 3.2 0.00 0.00 0.00 72 1014.9
20260905144230 31 214 0.0 0.0 0.00 0.00 0.00 73 1014.6
20260905143729 31 220 0.0 0.0 0.00 0.00 0.00 74 1014.8
20260905143229 31 206 0.0 0.0 0.00 0.00 0.00 72 1015.0
20260905142727 31 179 0.0 0.0 0.00 0.00 0.00 77 1015.0
20260905142222 30 213 0.0 0.0 0.00 0.00 0.00 76 1015.0
20260905141718 30 209 0.0 0.0 0.00 0.00 0.00 75 1014.8
20260905141214 30 197 0.0 0.0 0.00 0.00 0.00 77 1014.9
20260905140708 30 209 0.0 0.0 0.00 0.00 0.00 79 1014.9
20260905140203 30 199 0.0 0.0 0.00 0.00 0.00 79 1014.9
20260905135657 30 209 0.0 0.0 0.00 0.00 0.00 79 1015.1
20260905135154 30 199 0.0 0.0 0.00 0.00 0.00 80 1014.8
20260905134653 29 212 0.0 0.0 0.00 0.00 0.00 82 1015.0
20260905134152 29 238 0.0 0.0 0.00 0.00 0.00 81 1015.1
20260905133648 29 180 0.0 0.0 0.00 0.00 0.00 82 1015.0
20260905133148 28 209 0.0 0.0 0.00 0.00 0.00 83 1015.2
20260905132647 28 207 0.0 0.0 0.00 0.00 0.00 85 1014.6
20260905132142 28 207 0.0 0.0 0.00 0.00 0.00 85 1014.9
20260905131638 27 202 0.0 0.0 0.00 0.00 0.00 90 1015.1
20260905131138 26 202 0.0 0.0 0.00 0.00 0.00 92 1015.1
20260905130633 26 194 0.0 0.0 0.00 0.00 0.00 94 1015.0
20260905130133 25 207 0.0 0.0 0.00 0.00 0.00 96 1015.3
20260905125632 25 208 0.0 0.0 0.00 0.00 0.00 97 1015.0
20260905125128 24 205 0.0 0.0 0.00 0.00 0.00 99 1015.1
20260905124625 24 205 0.0 0.0 0.00 0.00 0.00 99 1015.0
20260905124120 23 207 0.0 0.0 0.00 0.00 0.00 99 1015.2
20260905123615 23 211 0.0 0.0 0.00 0.00 0.00 99 1015.2
20260905123113 23 211 0.0 0.0 0.00 0.00 0.00 99 1015.1
20260905122613 23 211 0.0 0.0 0.00 0.00 0.00 99 1015.1
20260905122113 23 211 0.0 0.0 0.00 0.00 0.00 99 1014.9
20260905121607 22 211 0.0 0.0 0.00 0.00 0.00 99 1014.9
20260905121103 22 206 0.0 0.0 0.00 0.00 0.00 99 1014.8
20260905120602 22 207 0.0 0.0 0.00 0.00 0.00 99 1015.1
20260905120057 22 207 0.0 0.0 0.00 0.00 0.00 99 1015.1
20260905115556 22 209 0.0 0.0 0.00 0.00 0.00 99 1014.8
20260905115051 22 209 0.0 0.0 0.00 0.00 0.00 99 1014.9
20260905114550 22 211 0.0 0.0 0.00 0.00 0.00 99 1014.8
20260905114049 22 211 0.0 0.0 0.00 0.00 0.00 99 1014.8